Weather Roundup
Issued by NWS Springfield, MO

Home | Current Version | Previous Version | Text Only | Print | Product List | Glossary On
Versions: 1 2 3 4 5 6 7 8 9 10 11 12 13 14 15 16 17 18 19 20 21 22 23 24 25 26 27 28 29 30 31 32 33 34 35 36 37 38 39 40 41 42 43 44 45 46 47 48 49 50
000
NZUS99 KSGF 020907
HRRSGF

HOURLY WEATHER
NATIONAL WEATHER SERVICE SPRINGFIELD MO
400 AM CDT THU OCT 02 2014

......SGF CWA......

CITY           SKY/WX    TMP DP  RH WIND       PRES   REMARKS
SPRINGFIELD    CLEAR     72  68  87 S17       29.78S
JOPLIN         CLOUDY    74  69  85 S15       29.74S
WEST PLAINS    CLEAR     69  66  90 SE8       29.86F
ROLLA          CLOUDY    70  66  87 E5        29.82S
OSAGE BEACH    MOCLDY    66  63  88 NE8       29.80S
BRANSON        CLEAR     68  66  94 SE5       29.82F

......SURROUNDING SGF CWA......

CITY           SKY/WX    TMP DP  RH WIND       PRES   REMARKS
CHANUTE        MOCLDY    73  70  90 S14       29.72F
PARSONS        LGT RAIN  71  66  84 S9        29.74F
COFFEYVILLE    TSTM      69  66  90 SE8       29.72F
EMPORIA        CLEAR     65  64  97 SE6       29.69F FOG
GROVE OK       CLOUDY    77  70  78 S10       29.75F
ROGERS AR      PTCLDY    73  67  81 SE13      29.80F
SILOAM SPRINGS PTCLDY    73  64  73 S12       29.79F
HARRISON AR    MOCLDY    73  69  87 S14       29.83S
NEAR YELLVILLE MOCLDY    70  64  83 CALM      29.82F

......KANSAS AND MISSOURI......

CITY           SKY/WX    TMP DP  RH WIND       PRES   REMARKS
KANSAS CTY INT CLOUDY    68  64  87 SE10      29.72F
DOWNTOWN KC    CLOUDY    68  65  90 E5        29.72F
COLUMBIA       TSTM      64  62  93 E15G23    29.83R FOG
SEDALIA        TSTM      65  63  93 SE17      29.78F
ST JOSEPH      PTCLDY    61  60  97 NE5       29.72F
ST LOUIS       LGT RAIN  68  63  84 N20G25    29.90R
SPIRIT OF STL  LGT RAIN  67  64  90 CALM      29.87R
KIRKSVILLE     CLOUDY    64  63  96 NE5       29.79F FOG
WICHITA        PTCLDY    71  63  75 SE10      29.67F
TOPEKA         MOCLDY    66  66 100 E6        29.71S FOG
OLATHE         CLOUDY    65  64  97 SE5       29.73S

......TENNESSEE......

CITY           SKY/WX    TMP DP  RH WIND       PRES   REMARKS
MEMPHIS        PTCLDY    73  64  73 S9        29.91R
NASHVILLE      CLEAR     64  58  80 S3        29.98S

......ARKANSAS.......

CITY           SKY/WX    TMP DP  RH WIND       PRES   REMARKS
FAYETTEVILLE   CLEAR     73  69  87 S6        29.80S
FT SMITH       MOCLDY    73  69  87 E3        29.79S
LITTLE ROCK    CLOUDY    74  69  85 SE7       29.85F

......OKLAHOMA.......

CITY           SKY/WX    TMP DP  RH WIND       PRES   REMARKS
TULSA          CLOUDY    77  70  79 S12       29.70F
PONCA CITY     PTCLDY    78  66  66 S9G21     29.68S
MCALESTER      MOCLDY    77  71  82 S9        29.76F
OKLAHOMA CITY  MOCLDY    73  67  81 S12       29.70F

......IOWA............

CITY           SKY/WX    TMP DP  RH WIND       PRES   REMARKS
DES MOINES     CLOUDY    64  63  96 E3        29.78R FOG
QUAD CITIES    CLOUDY    64  62  93 CALM      29.81R FOG

......ILLINOIS........

CITY           SKY/WX    TMP DP  RH WIND       PRES   REMARKS
QUINCY         LGT RAIN  66  63  90 S13       29.80R
CHICAGO        CLOUDY    63  56  78 SE6       29.86F



USA.gov is the U.S. government's official web portal to all federal, state and local government web resources and services.